CZ-4C DEB, 40343

Orbit data source: Space-Track

CZ-4C DEB, 40343 is space debris in LEO originally from a launch on Wed, 10 Dec 2014 UTC launched from the Jiuquan Satellite Launch Center, China (JSC). Debris objects in space refer to the collection of defunct objects orbiting the Earth. Examples of debris include non-operational satellites, rocket bodies, and fragments generated from explosions, collisions, or faulty payload assembly.

Loading next visibility...
Identifier
40343, 2014-080F
Orbit
LEO
Country
Flag of CNCN / PRC
Related business
Manufacturer
CAST
Mission
Spacecraft
Bus & Motor
Unknown
Mass
Unknown
Launch date (UTC)
2014-12-10 (12 years ago)
Launch vehicle
Unknown
Launch site
Jiuquan Satellite Launch Center, China (JSC)
Object type
Payload
Rocket body
Debris
Shape & HBR
Unknown shape, 3.3 m
Radar Cross Section
Large (>1 m²)

Expand to show TLE details & history
Last TLE update: 2 days ago

TLE from 2 days ago
0 CZ-4C DEB
1 40343U 14080F   26171.45071772 -.00000072  00000-0  20193-4 0  9996
2 40343  63.3887 317.5148 0379587  10.8481 350.0446 13.44904501565864
Epoch: 2026-06-20T10:49Z
TLE epoch observation values (Epoch: 2026-06-20T10:49:02.011Z)
Latitude
-0.00008°
Longitude
-113.40878°
Altitude
813.894 km
Speed
7.584 km/s
True Right ascension
21h 10m 03s
True Declination
0° 00' 00"
Sunlit
Object was in full shadow at epoch
Visualization orbit readout
Latitude
Unknown
Longitude
Unknown
Altitude
Unknown
Speed
Unknown
Apparent Right ascension
Unknown
Apparent Declination
Unknown
Sunlit
N/A
Visualization observer readout
Local Sidereal Time
21:36:22
Azimuth
Unknown
Elevation
Unknown
Doppler factor
Unknown
Orbital elements
Apogee altitude
1,373.37 km
Perigee altitude
806.417 km
Semi-major axis
7,468.031 km
Eccentricity
0.03796
Inclination
63.3887°
RAAN
317.5148°
Arg. of periapsis
10.8481°
True anomaly
349.25584°
Mean anomaly
350.0446°
Eccentric anomaly
349.65401°
Mean motion
3.36306 °/min
Orbital period
107.05 mins
BSTAR
0.000020193
Loading maneuver chart data...
Computing Atmospheric mass density...
Loading historical data...
Loading historical data...
Loading historical data...
Loading historical data...
Loading historical data...
Loading historical data...
Loading historical data...

Documentation

Showing up to 5 results
|